Year,Month,Day,Hour,Minute,Value (Times are PST for windspeed in km/hr)
2008,12,29,00,00,0.00
2008,12,29,00,01,0.00
2008,12,29,00,02,0.00
2008,12,29,00,03,0.00
2008,12,29,00,04,0.00
2008,12,29,00,05,0.00
2008,12,29,00,06,0.00
2008,12,29,00,07,0.00
2008,12,29,00,08,0.00
2008,12,29,00,09,0.00
2008,12,29,00,10,0.00
2008,12,29,00,11,0.00
2008,12,29,00,12,0.00
2008,12,29,01,02,0.00
2008,12,29,01,03,0.00
2008,12,29,01,04,0.00
2008,12,29,01,05,0.00
2008,12,29,01,06,0.00
2008,12,29,01,07,0.00
2008,12,29,01,08,1.10
2008,12,29,01,09,0.30
2008,12,29,01,10,0.00
2008,12,29,01,11,0.00
2008,12,29,01,12,0.00
2008,12,29,01,13,0.00
2008,12,29,01,14,0.00
2008,12,29,01,15,0.00
2008,12,29,01,16,0.00
2008,12,29,01,17,0.70
2008,12,29,01,18,0.50
2008,12,29,01,19,0.60
2008,12,29,01,20,0.00
2008,12,29,01,21,0.00
2008,12,29,01,22,0.00
2008,12,29,01,23,0.20
2008,12,29,01,24,0.00
2008,12,29,01,25,0.00
2008,12,29,01,26,0.00
2008,12,29,01,27,0.00
2008,12,29,01,28,0.00
2008,12,29,01,29,0.00
2008,12,29,01,30,0.00
2008,12,29,01,31,0.00
2008,12,29,01,32,0.00
2008,12,29,01,33,0.00
2008,12,29,01,34,0.00
2008,12,29,01,35,0.00
2008,12,29,01,36,0.00
2008,12,29,01,37,0.00
2008,12,29,01,38,0.00
2008,12,29,01,39,0.00
2008,12,29,01,40,1.90
2008,12,29,01,41,1.20
2008,12,29,01,42,0.00
2008,12,29,01,43,0.00
2008,12,29,01,44,0.00
2008,12,29,01,45,0.00
2008,12,29,01,46,0.00
2008,12,29,01,47,0.00
2008,12,29,01,48,0.00
2008,12,29,01,49,0.00
2008,12,29,01,50,0.00
2008,12,29,01,51,0.00
2008,12,29,01,52,0.00
2008,12,29,01,53,0.00
2008,12,29,01,54,0.00
2008,12,29,01,55,0.00
2008,12,29,01,56,0.00
2008,12,29,01,57,0.00
2008,12,29,01,58,0.00
2008,12,29,01,59,0.00
2008,12,29,02,00,0.00
2008,12,29,02,01,0.00
2008,12,29,02,02,0.00
2008,12,29,02,03,0.00
2008,12,29,02,04,0.00
2008,12,29,02,05,0.00
2008,12,29,02,06,0.00
2008,12,29,02,07,0.00
2008,12,29,02,08,0.00
2008,12,29,02,09,0.30
2008,12,29,02,10,0.10
2008,12,29,02,11,0.50
2008,12,29,02,12,0.00
2008,12,29,02,13,0.00
2008,12,29,02,14,0.00
2008,12,29,02,15,0.00
2008,12,29,02,16,1.90
2008,12,29,02,17,0.10
2008,12,29,02,18,0.00
2008,12,29,02,19,0.00
2008,12,29,02,20,0.00
2008,12,29,02,21,0.20
2008,12,29,02,22,0.90
2008,12,29,02,23,0.00
2008,12,29,02,24,0.00
2008,12,29,02,25,0.00
2008,12,29,02,26,1.20
2008,12,29,02,27,1.90
2008,12,29,02,28,0.00
2008,12,29,02,29,0.00
2008,12,29,02,30,0.00
2008,12,29,02,31,0.00
2008,12,29,02,32,0.00
2008,12,29,02,33,0.00
2008,12,29,02,34,0.00
2008,12,29,02,35,0.00
2008,12,29,02,36,0.00
2008,12,29,02,37,0.00
2008,12,29,02,38,0.00
2008,12,29,02,39,0.00
2008,12,29,02,40,0.00
2008,12,29,02,41,0.00
2008,12,29,02,42,0.00
2008,12,29,02,43,0.00
2008,12,29,02,44,0.00
2008,12,29,02,45,0.00
2008,12,29,02,46,0.00
2008,12,29,02,47,0.00
2008,12,29,02,48,0.00
2008,12,29,02,49,0.00
2008,12,29,02,50,0.00
2008,12,29,02,51,0.00
2008,12,29,02,52,1.20
2008,12,29,02,53,0.20
2008,12,29,02,54,0.00
2008,12,29,02,55,0.00
2008,12,29,02,56,0.00
2008,12,29,02,57,0.20
2008,12,29,02,58,0.00
2008,12,29,02,59,0.00
2008,12,29,03,00,0.00
2008,12,29,03,01,0.10
2008,12,29,03,02,0.00
2008,12,29,03,03,0.00
2008,12,29,03,04,0.00
2008,12,29,03,05,0.00
2008,12,29,03,06,0.00
2008,12,29,03,07,0.00
2008,12,29,03,08,0.00
2008,12,29,03,09,0.00
2008,12,29,03,10,0.00
2008,12,29,03,11,0.00
2008,12,29,03,12,0.00
2008,12,29,03,13,0.00
2008,12,29,03,14,0.00
2008,12,29,03,15,0.00
2008,12,29,03,16,0.00
2008,12,29,03,17,0.00
2008,12,29,03,18,0.00
2008,12,29,03,19,0.00
2008,12,29,03,20,0.00
2008,12,29,03,21,1.00
2008,12,29,03,22,3.10
2008,12,29,03,23,2.70
2008,12,29,03,24,0.20
2008,12,29,03,25,0.60
2008,12,29,03,26,0.00
2008,12,29,03,27,0.00
2008,12,29,03,28,0.00
2008,12,29,03,29,0.00
2008,12,29,03,30,1.30
2008,12,29,03,31,0.80
2008,12,29,03,32,0.90
2008,12,29,03,33,1.30
2008,12,29,03,34,0.30
2008,12,29,03,35,0.30
2008,12,29,03,36,4.90
2008,12,29,03,37,3.70
2008,12,29,03,38,3.40
2008,12,29,03,39,0.30
2008,12,29,03,40,0.20
2008,12,29,03,41,0.10
2008,12,29,03,42,5.10
2008,12,29,03,43,3.30
2008,12,29,03,44,2.40
2008,12,29,03,45,0.60
2008,12,29,03,46,0.00
2008,12,29,03,47,0.00
2008,12,29,03,48,1.80
2008,12,29,03,49,1.10
2008,12,29,03,50,0.00
2008,12,29,03,51,0.00
2008,12,29,03,52,0.00
2008,12,29,03,53,0.00
2008,12,29,03,54,1.00
2008,12,29,03,55,3.40
2008,12,29,03,56,1.10
2008,12,29,03,57,0.40
2008,12,29,03,58,0.60
2008,12,29,03,59,0.00
2008,12,29,04,00,0.00
2008,12,29,04,01,0.00
2008,12,29,04,02,0.60
2008,12,29,04,03,0.30
2008,12,29,04,04,0.00
2008,12,29,04,05,0.40
2008,12,29,04,06,0.20
2008,12,29,04,07,0.30
2008,12,29,04,08,0.10
2008,12,29,04,09,0.00
2008,12,29,04,10,0.30
2008,12,29,04,11,0.00
2008,12,29,04,12,0.00
2008,12,29,04,13,0.00
2008,12,29,04,14,0.00
2008,12,29,04,15,0.00
2008,12,29,04,16,0.00
2008,12,29,04,17,0.00
2008,12,29,04,18,0.00
2008,12,29,04,19,0.00
2008,12,29,04,20,0.00
2008,12,29,04,21,0.00
2008,12,29,04,22,0.00
2008,12,29,04,23,0.00
2008,12,29,04,24,0.00
2008,12,29,04,25,0.00
2008,12,29,04,26,0.00
2008,12,29,04,27,0.00
2008,12,29,04,28,0.00
2008,12,29,04,29,0.00
2008,12,29,04,30,0.00
2008,12,29,04,31,0.00
2008,12,29,04,32,0.00
2008,12,29,04,33,0.00
2008,12,29,04,34,0.00
2008,12,29,04,35,0.00
2008,12,29,04,36,0.00
2008,12,29,04,37,0.00
2008,12,29,04,38,0.00
2008,12,29,04,39,0.00
2008,12,29,04,40,0.00
2008,12,29,04,41,0.00
2008,12,29,04,42,0.00
2008,12,29,04,43,0.00
2008,12,29,04,44,0.00
2008,12,29,04,45,0.00
2008,12,29,04,46,0.00
2008,12,29,04,47,0.00
2008,12,29,04,48,0.00
2008,12,29,04,49,0.00
2008,12,29,04,50,0.00
2008,12,29,04,51,0.00
2008,12,29,04,52,0.00
2008,12,29,04,53,0.00
2008,12,29,04,54,0.00
2008,12,29,04,55,0.00
2008,12,29,04,56,0.00
2008,12,29,04,57,0.00
2008,12,29,04,58,0.00
2008,12,29,04,59,0.00
2008,12,29,05,00,0.00
2008,12,29,05,01,0.00
2008,12,29,05,02,0.00
2008,12,29,05,03,0.00
2008,12,29,05,04,0.00
2008,12,29,05,05,0.00
2008,12,29,05,06,0.00
2008,12,29,05,07,0.00
2008,12,29,05,08,0.00
2008,12,29,05,09,0.00
2008,12,29,05,10,0.00
2008,12,29,05,11,0.00
2008,12,29,05,12,0.00
2008,12,29,05,13,0.00
2008,12,29,05,14,0.00
2008,12,29,05,15,0.00
2008,12,29,05,16,0.00
2008,12,29,05,17,0.00
2008,12,29,05,18,0.00
2008,12,29,05,19,0.00
2008,12,29,05,20,0.00
2008,12,29,05,21,0.00
2008,12,29,05,22,0.00
2008,12,29,05,23,0.00
2008,12,29,05,24,0.00
2008,12,29,05,25,0.00
2008,12,29,05,26,0.00
2008,12,29,05,27,0.00
2008,12,29,05,28,0.00
2008,12,29,05,29,0.00
2008,12,29,05,30,0.00
2008,12,29,05,31,0.00
2008,12,29,05,32,0.00
2008,12,29,05,33,0.00
2008,12,29,05,34,0.00
2008,12,29,05,35,0.00
2008,12,29,05,36,0.00
2008,12,29,05,37,0.00
2008,12,29,05,38,0.00
2008,12,29,05,39,0.00
2008,12,29,05,40,0.00
2008,12,29,05,41,0.00
2008,12,29,05,42,0.00
2008,12,29,05,43,0.00
2008,12,29,05,44,0.00
2008,12,29,05,45,0.00
2008,12,29,05,46,0.00
2008,12,29,05,47,0.00
2008,12,29,05,48,0.00
2008,12,29,05,49,0.00
2008,12,29,05,50,0.00
2008,12,29,05,51,0.00
2008,12,29,05,52,0.00
2008,12,29,05,53,0.00
2008,12,29,05,54,0.00
2008,12,29,05,55,0.00
2008,12,29,05,56,0.00
2008,12,29,05,57,0.00
2008,12,29,05,58,0.00
2008,12,29,05,59,0.00
2008,12,29,06,00,0.00
2008,12,29,06,01,0.00
2008,12,29,06,02,0.00
2008,12,29,06,03,0.00
2008,12,29,06,04,0.00
2008,12,29,06,05,0.00
2008,12,29,06,06,0.00
2008,12,29,06,07,0.00
2008,12,29,06,08,0.00
2008,12,29,06,09,0.00
2008,12,29,06,10,0.00
2008,12,29,06,11,0.00
2008,12,29,06,12,0.00
2008,12,29,06,13,0.00
2008,12,29,06,14,0.50
2008,12,29,06,15,0.40
2008,12,29,06,16,0.20
2008,12,29,06,17,0.00
2008,12,29,06,18,0.20
2008,12,29,06,19,0.00
2008,12,29,06,20,0.10
2008,12,29,06,21,0.20
2008,12,29,06,22,0.00
2008,12,29,06,23,0.00
2008,12,29,06,24,0.00
2008,12,29,06,25,0.10
2008,12,29,06,26,0.00
2008,12,29,06,27,0.00
2008,12,29,06,28,0.00
2008,12,29,06,29,0.00
2008,12,29,06,30,0.00
2008,12,29,06,31,0.30
2008,12,29,06,32,0.10
2008,12,29,06,33,0.00
2008,12,29,06,34,0.00
2008,12,29,06,35,0.00
2008,12,29,06,36,0.00
2008,12,29,06,37,0.00
2008,12,29,06,38,0.00
2008,12,29,06,39,0.10
2008,12,29,06,40,0.00
2008,12,29,06,41,0.20
2008,12,29,06,42,0.00
2008,12,29,06,43,0.00
2008,12,29,06,44,0.00
2008,12,29,06,45,0.00
2008,12,29,06,46,0.00
2008,12,29,06,47,0.00
2008,12,29,06,48,0.00
2008,12,29,06,49,0.00
2008,12,29,06,50,0.00
2008,12,29,06,51,0.00
2008,12,29,06,52,0.00
2008,12,29,06,53,0.00
2008,12,29,06,54,0.00
2008,12,29,06,55,0.00
2008,12,29,06,56,0.00
2008,12,29,06,57,0.00
2008,12,29,06,58,0.00
2008,12,29,06,59,0.00
2008,12,29,07,00,0.00
2008,12,29,07,01,0.00
2008,12,29,07,02,0.00
2008,12,29,07,03,0.00
2008,12,29,07,04,0.00
2008,12,29,07,05,0.00
2008,12,29,07,06,0.00
2008,12,29,07,07,0.00
2008,12,29,07,08,0.00
2008,12,29,07,09,0.00
2008,12,29,07,10,0.00
2008,12,29,07,11,0.00
2008,12,29,07,12,0.00
2008,12,29,07,13,0.00
2008,12,29,07,14,0.00
2008,12,29,07,15,0.00
2008,12,29,07,16,0.30
2008,12,29,07,17,0.00
2008,12,29,07,18,0.00
2008,12,29,07,19,0.00
2008,12,29,07,20,0.00
2008,12,29,07,21,0.00
2008,12,29,07,22,0.00
2008,12,29,07,23,0.00
2008,12,29,07,24,0.00
2008,12,29,07,25,0.00
2008,12,29,07,26,0.00
2008,12,29,07,27,0.00
2008,12,29,07,28,0.00
2008,12,29,07,29,0.00
2008,12,29,07,30,0.00
2008,12,29,07,31,0.00
2008,12,29,07,32,0.00
2008,12,29,07,33,0.00
2008,12,29,07,34,0.00
2008,12,29,07,35,0.00
2008,12,29,07,36,0.00
2008,12,29,07,37,0.00
2008,12,29,07,38,0.10
2008,12,29,07,39,0.30
2008,12,29,07,40,0.30
2008,12,29,07,41,0.00
2008,12,29,07,42,0.00
2008,12,29,07,43,0.00
2008,12,29,07,44,0.00
2008,12,29,07,45,0.00
2008,12,29,07,46,0.00
2008,12,29,07,47,0.00
2008,12,29,07,48,0.00
2008,12,29,07,49,0.00
2008,12,29,07,50,0.00
2008,12,29,07,51,0.00
2008,12,29,07,52,0.00
2008,12,29,07,53,0.00
2008,12,29,07,54,0.00
2008,12,29,07,55,0.00
2008,12,29,07,56,0.00
2008,12,29,07,57,0.00
2008,12,29,07,58,0.00
2008,12,29,07,59,0.00
2008,12,29,08,00,0.00
2008,12,29,08,01,0.00
2008,12,29,08,02,0.00
2008,12,29,08,03,0.50
2008,12,29,08,04,0.00
2008,12,29,08,05,0.00
2008,12,29,08,06,0.00
2008,12,29,08,07,0.10
2008,12,29,08,08,0.00
2008,12,29,08,09,0.10
2008,12,29,08,10,0.80
2008,12,29,08,11,0.20
2008,12,29,08,12,0.00
2008,12,29,08,13,0.00
2008,12,29,08,14,0.00
2008,12,29,08,15,0.40
2008,12,29,08,16,0.50
2008,12,29,08,17,0.20
2008,12,29,08,18,0.00
2008,12,29,08,19,0.00
2008,12,29,08,20,0.00
2008,12,29,08,21,0.00
2008,12,29,08,22,0.00
2008,12,29,08,23,0.10
2008,12,29,08,24,0.00
2008,12,29,08,25,0.00
2008,12,29,08,26,0.00
2008,12,29,08,27,0.10
2008,12,29,08,28,0.00
2008,12,29,08,29,0.00
2008,12,29,08,30,0.00
2008,12,29,08,31,0.00
2008,12,29,08,32,0.00
2008,12,29,08,33,0.00
2008,12,29,08,34,0.00
2008,12,29,08,35,0.00
2008,12,29,08,36,0.00
2008,12,29,08,37,0.00
2008,12,29,08,38,0.00
2008,12,29,08,39,0.00
2008,12,29,08,40,0.00
2008,12,29,08,41,0.00
2008,12,29,08,42,0.00
2008,12,29,08,43,0.00
2008,12,29,08,44,0.00
2008,12,29,08,45,0.00
2008,12,29,08,46,0.00
2008,12,29,08,47,0.00
2008,12,29,08,48,0.00
2008,12,29,08,49,0.00
2008,12,29,08,50,0.00
2008,12,29,08,51,0.00
2008,12,29,08,52,0.00
2008,12,29,08,53,0.00
2008,12,29,08,54,0.00
2008,12,29,08,55,0.00
2008,12,29,08,56,0.00
2008,12,29,08,57,0.00
2008,12,29,08,58,0.30
2008,12,29,08,59,0.00
2008,12,29,09,00,0.00
2008,12,29,09,01,0.00
2008,12,29,09,02,0.00
2008,12,29,09,03,0.00
2008,12,29,09,04,0.00
2008,12,29,09,05,0.00
2008,12,29,09,06,0.00
2008,12,29,09,07,0.00
2008,12,29,09,08,0.00
2008,12,29,09,09,0.00
2008,12,29,09,10,0.00
2008,12,29,09,11,0.00
2008,12,29,09,12,0.00
2008,12,29,09,13,0.00
2008,12,29,09,14,0.00
2008,12,29,09,15,0.00
2008,12,29,09,16,0.00
2008,12,29,09,17,0.00
2008,12,29,09,18,0.00
2008,12,29,09,19,0.00
2008,12,29,09,20,0.00
2008,12,29,09,21,0.00
2008,12,29,09,22,0.00
2008,12,29,09,23,0.00
2008,12,29,09,24,0.00
2008,12,29,09,25,0.00
2008,12,29,09,26,0.00
2008,12,29,09,27,0.00
2008,12,29,09,28,0.00
2008,12,29,09,29,0.00
2008,12,29,09,30,0.00
2008,12,29,09,31,0.00
2008,12,29,09,32,0.00
2008,12,29,09,33,0.00
2008,12,29,09,34,0.00
2008,12,29,09,35,0.00
2008,12,29,09,36,0.00
2008,12,29,09,37,0.00
2008,12,29,09,38,0.20
2008,12,29,09,39,1.10
2008,12,29,09,40,3.30
2008,12,29,09,41,1.00
2008,12,29,09,42,0.90
2008,12,29,09,43,1.20
2008,12,29,09,44,0.00
2008,12,29,09,45,0.00
2008,12,29,09,46,0.00
2008,12,29,09,47,0.00
2008,12,29,09,48,0.00
2008,12,29,09,49,0.00
2008,12,29,09,50,0.00
2008,12,29,09,51,0.00
2008,12,29,09,52,0.00
2008,12,29,09,53,0.00
2008,12,29,09,54,0.10
2008,12,29,09,55,0.00
2008,12,29,09,56,0.00
2008,12,29,09,57,0.00
2008,12,29,09,58,0.10
2008,12,29,09,59,1.20
2008,12,29,10,00,0.60
2008,12,29,10,01,2.10
2008,12,29,10,02,0.70
2008,12,29,10,03,0.20
2008,12,29,10,04,0.20
2008,12,29,10,05,0.00
2008,12,29,10,06,0.00
2008,12,29,10,07,0.00
2008,12,29,10,08,0.00
2008,12,29,10,09,0.00
2008,12,29,10,10,0.00
2008,12,29,10,11,0.00
2008,12,29,10,12,0.00
2008,12,29,10,13,0.00
2008,12,29,10,14,0.00
2008,12,29,10,15,0.00
2008,12,29,10,16,0.00
2008,12,29,10,17,0.00
2008,12,29,10,18,0.00
2008,12,29,10,19,0.00
2008,12,29,10,20,0.00
2008,12,29,10,21,0.00
2008,12,29,10,22,0.00
2008,12,29,10,23,0.00
2008,12,29,10,24,0.00
2008,12,29,10,25,0.00
2008,12,29,10,26,0.00
2008,12,29,10,27,0.00
2008,12,29,10,28,0.00
2008,12,29,10,29,0.00
2008,12,29,10,30,0.00
2008,12,29,10,31,0.00
2008,12,29,10,32,0.00
2008,12,29,10,33,0.00
2008,12,29,10,34,0.00
2008,12,29,10,35,0.00
2008,12,29,10,36,0.00
2008,12,29,10,37,0.00
2008,12,29,10,38,0.00
2008,12,29,10,39,0.00
2008,12,29,10,40,0.00
2008,12,29,10,41,0.00
2008,12,29,10,42,0.60
2008,12,29,10,43,0.10
2008,12,29,10,44,0.00
2008,12,29,10,45,0.00
2008,12,29,10,46,0.00
2008,12,29,10,47,0.00
2008,12,29,10,48,0.00
2008,12,29,10,49,0.00
2008,12,29,10,50,0.00
2008,12,29,10,51,0.00
2008,12,29,10,52,0.00
2008,12,29,10,53,0.30
2008,12,29,10,54,0.50
2008,12,29,10,55,1.60
2008,12,29,10,56,4.50
2008,12,29,10,57,2.50
2008,12,29,10,58,2.50
2008,12,29,10,59,0.30
2008,12,29,11,00,0.00
2008,12,29,11,01,0.10
2008,12,29,11,02,0.00
2008,12,29,11,03,0.00
2008,12,29,11,04,0.00
2008,12,29,11,05,0.70
2008,12,29,11,06,0.30
2008,12,29,11,07,2.70
2008,12,29,11,08,5.60
2008,12,29,11,09,5.20
2008,12,29,11,10,4.10
2008,12,29,11,11,2.30
2008,12,29,11,12,0.30
2008,12,29,11,13,0.40
2008,12,29,11,14,3.50
2008,12,29,11,15,1.40
2008,12,29,11,16,2.30
2008,12,29,11,17,6.70
2008,12,29,11,18,8.10
2008,12,29,11,19,9.10
2008,12,29,11,20,10.70
2008,12,29,11,21,11.30
2008,12,29,11,22,10.80
2008,12,29,11,23,9.70
2008,12,29,11,24,9.40
2008,12,29,11,25,13.80
2008,12,29,11,26,17.20
2008,12,29,11,27,16.20
2008,12,29,11,28,24.20
2008,12,29,11,29,14.80
2008,12,29,11,30,17.40
2008,12,29,11,31,16.90
2008,12,29,11,32,23.50
2008,12,29,11,33,22.10
2008,12,29,11,34,12.30
2008,12,29,11,35,27.40
2008,12,29,11,36,18.10
2008,12,29,11,37,13.30
2008,12,29,11,38,21.40
2008,12,29,11,39,23.00
2008,12,29,11,40,28.60
2008,12,29,11,41,24.60
2008,12,29,11,42,20.40
2008,12,29,11,43,14.20
2008,12,29,11,44,18.30
2008,12,29,11,45,19.00
2008,12,29,11,46,25.10
2008,12,29,11,47,18.60
2008,12,29,11,48,36.00
2008,12,29,11,49,24.40
2008,12,29,11,50,15.60
2008,12,29,11,51,19.60
2008,12,29,11,52,18.30
2008,12,29,11,53,19.50
2008,12,29,11,54,18.90
2008,12,29,11,55,11.20
2008,12,29,11,56,9.60
2008,12,29,11,57,23.20
2008,12,29,11,58,20.20
2008,12,29,11,59,12.00
2008,12,29,12,00,19.00
2008,12,29,12,01,17.30
2008,12,29,12,02,35.20
2008,12,29,12,03,37.30
2008,12,29,12,04,22.70
2008,12,29,12,05,16.90
2008,12,29,12,06,22.10
2008,12,29,12,07,16.90
2008,12,29,12,08,21.90
2008,12,29,12,09,15.20
2008,12,29,12,10,21.30
2008,12,29,12,11,23.60
2008,12,29,12,12,21.80
2008,12,29,12,13,26.10
2008,12,29,12,14,23.30
2008,12,29,12,15,28.30
2008,12,29,12,16,21.10
2008,12,29,12,17,35.10
2008,12,29,12,18,19.70
2008,12,29,12,19,21.40
2008,12,29,12,20,30.50
2008,12,29,12,21,29.60
2008,12,29,12,22,20.70
2008,12,29,12,23,25.80
2008,12,29,12,24,22.90
2008,12,29,12,25,11.70
2008,12,29,12,26,24.00
2008,12,29,12,27,17.40
2008,12,29,12,28,18.70
2008,12,29,12,29,19.10
2008,12,29,12,30,20.90
2008,12,29,12,31,23.50
2008,12,29,12,32,15.30
2008,12,29,12,33,17.80
2008,12,29,12,34,21.80
2008,12,29,12,35,21.70
2008,12,29,12,36,28.80
2008,12,29,12,37,20.00
2008,12,29,12,38,27.10
2008,12,29,12,39,27.00
2008,12,29,12,40,24.40
2008,12,29,12,41,26.10
2008,12,29,12,42,23.90
2008,12,29,12,43,27.30
2008,12,29,12,44,24.10
2008,12,29,12,45,16.50
2008,12,29,12,46,23.40
2008,12,29,12,47,23.70
2008,12,29,12,48,12.60
2008,12,29,12,49,18.70
2008,12,29,12,50,18.40
2008,12,29,12,51,20.80
2008,12,29,12,52,19.60
2008,12,29,12,53,23.00
2008,12,29,12,54,24.20
2008,12,29,12,55,15.90
2008,12,29,12,56,21.80
2008,12,29,12,57,22.70
2008,12,29,12,58,14.10
2008,12,29,12,59,11.50
2008,12,29,13,00,18.50
2008,12,29,13,01,15.50
2008,12,29,13,02,11.30
2008,12,29,13,03,21.80
2008,12,29,13,04,15.80
2008,12,29,13,05,15.20
2008,12,29,13,06,8.90
2008,12,29,13,07,17.40
2008,12,29,13,08,11.40
2008,12,29,13,09,16.80
2008,12,29,13,10,16.50
2008,12,29,13,11,15.60
2008,12,29,13,12,16.20
2008,12,29,13,13,10.20
2008,12,29,13,14,25.80
2008,12,29,13,15,27.90
2008,12,29,13,16,15.40
2008,12,29,13,17,24.90
2008,12,29,13,18,22.90
2008,12,29,13,19,14.80
2008,12,29,13,20,8.80
2008,12,29,13,21,12.90
2008,12,29,13,22,24.20
2008,12,29,13,23,23.40
2008,12,29,13,24,17.40
2008,12,29,13,25,13.40
2008,12,29,13,26,24.60
2008,12,29,13,27,23.00
2008,12,29,13,28,22.20
2008,12,29,13,29,15.00
2008,12,29,13,30,14.60
2008,12,29,13,31,17.40
2008,12,29,13,32,19.60
2008,12,29,13,33,12.20
2008,12,29,13,34,15.50
2008,12,29,13,35,17.30
2008,12,29,13,36,16.70
2008,12,29,13,37,11.50
2008,12,29,13,38,17.10
2008,12,29,13,39,25.70
2008,12,29,13,40,17.40
2008,12,29,13,41,12.50
2008,12,29,13,42,4.70
2008,12,29,13,43,11.50
2008,12,29,13,44,8.80
2008,12,29,13,45,15.80
2008,12,29,13,46,19.00
2008,12,29,13,47,19.60
2008,12,29,13,48,17.60
2008,12,29,13,49,11.90
2008,12,29,13,50,11.20
2008,12,29,13,51,11.40
2008,12,29,13,52,9.90
2008,12,29,13,53,10.40
2008,12,29,13,54,17.70
2008,12,29,13,55,8.30
2008,12,29,13,56,14.00
2008,12,29,13,57,8.00
2008,12,29,13,58,7.00
2008,12,29,13,59,14.00
2008,12,29,14,00,13.30
2008,12,29,14,01,5.80
2008,12,29,14,02,12.90
2008,12,29,14,03,11.40
2008,12,29,14,04,12.20
2008,12,29,14,05,7.10
2008,12,29,14,06,6.40
2008,12,29,14,07,16.00
2008,12,29,14,08,9.40
2008,12,29,14,09,10.40
2008,12,29,14,10,16.30
2008,12,29,14,11,13.00
2008,12,29,14,12,10.40
2008,12,29,14,13,13.30
2008,12,29,14,14,17.10
2008,12,29,14,15,12.90
2008,12,29,14,16,14.30
2008,12,29,14,17,14.70
2008,12,29,14,18,10.60
2008,12,29,14,19,15.10
2008,12,29,14,20,14.00
2008,12,29,14,21,10.40
2008,12,29,14,22,9.70
2008,12,29,14,23,16.90
2008,12,29,14,24,18.20
2008,12,29,14,25,10.40
2008,12,29,14,26,13.50
2008,12,29,14,27,9.10
2008,12,29,14,28,11.80
2008,12,29,14,29,4.10
2008,12,29,14,30,4.60
2008,12,29,14,31,6.50
2008,12,29,14,32,11.50
2008,12,29,14,33,8.20
2008,12,29,14,34,12.00
2008,12,29,14,35,3.80
2008,12,29,14,36,1.50
2008,12,29,14,37,7.20
2008,12,29,14,38,4.70
2008,12,29,14,39,2.80
2008,12,29,14,40,5.50
2008,12,29,14,41,2.50
2008,12,29,14,42,0.10
2008,12,29,14,43,2.90
2008,12,29,14,44,8.90
2008,12,29,14,45,5.30
2008,12,29,14,46,4.50
2008,12,29,14,47,6.20
2008,12,29,14,48,1.70
2008,12,29,14,49,0.20
2008,12,29,14,50,0.00
2008,12,29,14,51,3.90
2008,12,29,14,52,3.30
2008,12,29,14,53,0.00
2008,12,29,14,54,0.00
2008,12,29,14,55,0.60
2008,12,29,14,56,0.10
2008,12,29,14,57,5.10
2008,12,29,14,58,6.50
2008,12,29,14,59,8.10
2008,12,29,15,00,7.50
2008,12,29,15,01,8.00
2008,12,29,15,02,4.30
2008,12,29,15,03,2.60
2008,12,29,15,04,7.40
2008,12,29,15,05,4.70
2008,12,29,15,06,5.20
2008,12,29,15,07,6.30
2008,12,29,15,08,12.00
2008,12,29,15,09,11.90
2008,12,29,15,10,4.60
2008,12,29,15,11,5.00
2008,12,29,15,12,6.70
2008,12,29,15,13,2.70
2008,12,29,15,14,3.10
2008,12,29,15,15,10.30
2008,12,29,15,16,10.60
2008,12,29,15,17,6.40
2008,12,29,15,18,11.40
2008,12,29,15,19,11.60
2008,12,29,15,20,11.10
2008,12,29,15,21,12.10
2008,12,29,15,22,11.80
2008,12,29,15,23,10.80
2008,12,29,15,24,16.30
2008,12,29,15,25,9.60
2008,12,29,15,26,10.20
2008,12,29,15,27,12.20
2008,12,29,15,28,5.30
2008,12,29,15,29,1.30
2008,12,29,15,30,6.40
2008,12,29,15,31,18.40
2008,12,29,15,32,6.80
2008,12,29,15,33,7.50
2008,12,29,15,34,15.40
2008,12,29,15,35,11.30
2008,12,29,15,36,6.80
2008,12,29,15,37,8.10
2008,12,29,15,38,11.00
2008,12,29,15,39,4.70
2008,12,29,15,40,5.30
2008,12,29,15,41,10.10
2008,12,29,15,42,7.80
2008,12,29,15,43,9.70
2008,12,29,15,44,10.20
2008,12,29,15,45,7.70
2008,12,29,15,46,5.80
2008,12,29,15,47,10.00
2008,12,29,15,48,12.50
2008,12,29,15,49,9.60
2008,12,29,15,50,4.30
2008,12,29,15,51,6.00
2008,12,29,15,52,7.40
2008,12,29,15,53,7.90
2008,12,29,15,54,13.80
2008,12,29,15,55,5.50
2008,12,29,15,56,11.90
2008,12,29,15,57,4.20
2008,12,29,15,58,5.10
2008,12,29,15,59,6.40
2008,12,29,16,00,11.10
2008,12,29,16,01,16.00
2008,12,29,16,02,8.10
2008,12,29,16,03,6.20
2008,12,29,16,04,9.50
2008,12,29,16,05,16.90
2008,12,29,16,06,7.20
2008,12,29,16,07,5.20
2008,12,29,16,08,4.10
2008,12,29,16,09,1.40
2008,12,29,16,10,3.00
2008,12,29,16,11,3.40
2008,12,29,16,12,6.50
2008,12,29,16,13,2.90
2008,12,29,16,14,6.00
2008,12,29,16,15,3.70
2008,12,29,16,16,9.00
2008,12,29,16,17,3.90
2008,12,29,16,18,3.10
2008,12,29,16,19,5.50
2008,12,29,16,20,2.40
2008,12,29,16,21,5.80
2008,12,29,16,22,9.90
2008,12,29,16,23,12.20
2008,12,29,16,24,3.70
2008,12,29,16,25,7.40
2008,12,29,16,26,7.40
2008,12,29,16,27,10.60
2008,12,29,16,28,16.40
2008,12,29,16,29,10.90
2008,12,29,16,30,14.60
2008,12,29,16,31,7.50
2008,12,29,16,32,9.60
2008,12,29,16,33,6.40
2008,12,29,16,34,6.70
2008,12,29,16,35,7.10
2008,12,29,16,36,4.40
2008,12,29,16,37,5.10
2008,12,29,16,38,8.70
2008,12,29,16,39,11.10
2008,12,29,16,40,11.10
2008,12,29,16,41,7.30
2008,12,29,16,42,2.20
2008,12,29,16,43,1.80
2008,12,29,16,44,7.00
2008,12,29,16,45,5.80
2008,12,29,16,46,6.00
2008,12,29,16,47,7.40
2008,12,29,16,48,17.00
2008,12,29,16,49,20.20
2008,12,29,16,50,17.50
2008,12,29,16,51,11.70
2008,12,29,16,52,8.30
2008,12,29,16,53,5.70
2008,12,29,16,54,5.30
2008,12,29,16,55,6.40
2008,12,29,16,56,9.70
2008,12,29,16,57,10.20
2008,12,29,16,58,9.20
2008,12,29,16,59,13.50
2008,12,29,17,00,6.20
2008,12,29,17,01,6.50
2008,12,29,17,02,4.30
2008,12,29,17,03,8.90
2008,12,29,17,04,4.20
2008,12,29,17,05,6.40
2008,12,29,17,06,3.30
2008,12,29,17,07,7.50
2008,12,29,17,08,6.50
2008,12,29,17,09,3.40
2008,12,29,17,10,4.70
2008,12,29,17,11,0.90
2008,12,29,17,12,2.80
2008,12,29,17,13,0.60
2008,12,29,17,14,5.80
2008,12,29,17,15,6.60
2008,12,29,17,16,3.00
2008,12,29,17,17,3.80
2008,12,29,17,18,4.30
2008,12,29,17,19,1.90
2008,12,29,17,20,8.10
2008,12,29,17,21,5.00
2008,12,29,17,22,5.30
2008,12,29,17,23,6.60
2008,12,29,17,24,4.10
2008,12,29,17,25,6.70
2008,12,29,17,26,4.40
2008,12,29,17,27,8.80
2008,12,29,17,28,4.10
2008,12,29,17,29,0.70
2008,12,29,17,30,11.00
2008,12,29,17,31,8.60
2008,12,29,17,32,6.90
2008,12,29,17,33,12.50
2008,12,29,17,34,12.10
2008,12,29,17,35,12.00
2008,12,29,17,36,4.00
2008,12,29,17,37,4.50
2008,12,29,17,38,7.20
2008,12,29,17,39,6.70
2008,12,29,17,40,5.80
2008,12,29,17,41,6.80
2008,12,29,17,42,9.60
2008,12,29,17,43,9.10
2008,12,29,17,44,8.30
2008,12,29,17,45,7.20
2008,12,29,17,46,8.00
2008,12,29,17,47,5.00
2008,12,29,17,48,4.10
2008,12,29,17,49,4.70
2008,12,29,17,50,4.20
2008,12,29,17,51,4.80
2008,12,29,17,52,15.10
2008,12,29,17,53,5.60
2008,12,29,17,54,6.70
2008,12,29,17,55,6.40
2008,12,29,17,56,3.30
2008,12,29,17,57,2.10
2008,12,29,17,58,7.60
2008,12,29,17,59,9.70
2008,12,29,18,00,9.50
2008,12,29,18,01,8.50
2008,12,29,18,02,3.50
2008,12,29,18,03,5.60
2008,12,29,18,04,9.40
2008,12,29,18,05,3.40
2008,12,29,18,06,9.60
2008,12,29,18,07,14.50
2008,12,29,18,08,10.50
2008,12,29,18,09,2.20
2008,12,29,18,10,7.80
2008,12,29,18,11,13.10
2008,12,29,18,12,6.70
2008,12,29,18,13,9.50
2008,12,29,18,14,3.50
2008,12,29,18,15,10.20
2008,12,29,18,16,3.10
2008,12,29,18,17,5.10
2008,12,29,18,18,8.90
2008,12,29,18,19,2.50
2008,12,29,18,20,2.50
2008,12,29,18,21,4.10
2008,12,29,18,22,0.80
2008,12,29,18,23,1.10
2008,12,29,18,24,0.90
2008,12,29,18,25,3.50
2008,12,29,18,26,2.90
2008,12,29,18,27,0.80
2008,12,29,18,28,0.90
2008,12,29,18,29,3.50
2008,12,29,18,30,0.20
2008,12,29,18,31,2.30
2008,12,29,18,32,1.50
2008,12,29,18,33,6.00
2008,12,29,18,34,2.40
2008,12,29,18,35,4.60
2008,12,29,18,36,0.90
2008,12,29,18,37,1.50
2008,12,29,18,38,3.60
2008,12,29,18,39,2.70
2008,12,29,18,40,1.10
2008,12,29,18,41,3.70
2008,12,29,18,42,2.00
2008,12,29,18,43,1.20
2008,12,29,18,44,1.40
2008,12,29,18,45,8.30